Location: Baia Mare
(47.6567°N, 23.5850°E)
Time: 12:36:25
(UTC+02:00)

ISS - Pass Details

Date: 01 January 2019
Orbit: 404 x 407 km, 51.6° (Epoch: 16 January)

Event Time Altitude Azimuth Distance (km) Brightness Sun altitude
Exits shadow 05:53:53 35° 44° (NE) 681 -2.5 -22.6°
Drops below altitude 10° 05:56:02 10° 64° (ENE) 1,474 -0.3 -22.2°
Sets 05:58:09 0° 69° (ENE) 2,336 1.0 -21.9°
